Кехра

Эстония     59°20′08″N   25°19′51″E
темп.,
°C
ветер,
м/с
пор.,
м/с
влажн.,
%
обл.,
%
осадки,
мм/ч
давл.,
гПа
погр.,
м
12 апреля, пн
пн1200:00+5вюв41091100 0.1 1023442
03:00+6юв4139686 0.2 1021415
06:00+6ююв51490100 0.0 1019371
09:00+9ююв51577100 0.0 1019531
12:00+14ю61359100 0.0 1018894
15:00+16ю51150100 0.0 10181351
18:00+14ю51053100 0.0 10171254
21:00+11ююз3766100 0.0 1017163
13 апреля, вт
вт1300:00+10ююз51173100 0.0 1017967
03:00+8з3591100 0.1 1017504
06:00+5з2582100 0.0 1018390
09:00+4з3685100 0.1 1020562
12:00+6зюз2569100 0.1 1020830
15:00+8з4548100 0.1 10211432
18:00+7зсз2349100 0.0 10211171
21:00+4с116679 0.0 102127
14 апреля, ср
ср1400:00+2з117299 0.0 102123
03:00+2зюз247895 0.0 1020118
06:00+1зюз249088 0.0 102092
09:00+4з247678 0.0 1021402
12:00+7сз34535 0.0 10211319
15:00+8ссз444851 0.0 10221298
18:00+7ссз344760 0.0 1023997
21:00+2сз257289 0.0 1024111
15 апреля, чт
чт1500:00+1ссз268162 0.0 1025130
03:00+1ссв3984100 0.0 1026276
06:000ссв2889100 0.0 1027206
09:00+3св4773100 0.0 1028524
12:00+6св565173 0.0 1028979
15:00+7св574591 0.0 10291076
18:00+7св510415 0.0 10281028
21:00+2ссв38610 0.0 1029172
16 апреля, пт
пт1600:00+1ссв29690 0.0 1030209
03:000св29760 0.0 1030163
06:000св311780 0.0 1030246
09:00+5св411583 0.0 1030668
12:00+9св69425 0.0 1030984
15:00+10св69405 0.0 10311099
18:00+9всв51049100 0.0 1031992
21:00+6всв51454100 0.0 1033669